[[{"header":{"parameterUnit":"m.s-1","parameterCategory":1,"la1":30.2991,"la2":30.254,"lo1":-89.0895,"lo2":-89.0444,"dy":0.0017,"dx":0.0017,"nx":28,"ny":28,"refTime":"2026-03-04T09:00:00:Z","depth":0,"parameterNumber":2,"parameterNumberName":"U-component_of_WINDS"},"data":[0,0,0,0,0,0,0,0,0,0,0,0,0,0,0,0,0,0,0,0,0,0,0,0,0,0,0,0,0,0,0,0,0,0,0,0,0,0,0,0,0,0,0,0,0,0,0,0,0,0,0,0,0,0,0,0,0,0,-5.2454,-5.2455,0,-5.253,-5.2531,-5.2531,-5.2474,-5.2472,-5.2469,-5.2467,-5.2542,-5.2547,-5.2551,0,0,0,0,0,0,0,0,0,0,0,0,0,-5.226,-5.2264,-5.2454,-5.2455,-5.2456,-5.253,-5.2531,-5.2532,-5.2475,-5.2472,-5.2469,-5.2466,-5.2541,-5.2546,-5.2551,0,0,0,0,0,0,0,0,0,0,0,0,0,-5.2341,-5.2265,-5.2454,-5.2437,-5.2436,-5.2529,-5.2531,-5.2532,-5.2475,-5.2472,-5.2468,-5.2464,-5.2539,-5.2546,-5.2552,-5.2666,0,0,-5.2572,-5.2574,0,0,0,0,0,0,0,0,-5.2336,-5.2348,-5.2438,-5.2438,-5.2437,-5.2489,-5.249,-5.2577,-5.2476,-5.246,-5.2467,-5.2463,-5.2527,-5.2535,-5.2557,-5.267,-5.2673,-5.2572,-5.2576,-5.2579,-5.2581,0,0,0,0,0,0,0,-5.2331,-5.2344,-5.2484,-5.244,-5.2439,-5.2425,-5.2432,-5.2506,-5.2514,-5.2461,-5.2457,-5.2467,-5.2526,-5.2551,-5.2558,-5.2674,-5.2572,-5.2578,-5.2582,-5.2584,-5.2885,-5.2889,0,0,0,0,0,0,-5.2327,-5.234,-5.2481,-5.2486,-5.2377,-5.2431,-5.244,-5.2476,-5.2513,-5.2515,-5.247,-5.2464,-5.2542,-5.2551,-5.2561,-5.2696,-5.2579,-5.2585,-5.2589,-5.2881,-5.2886,-5.2891,0,0,0,0,0,0,-5.2323,-5.234,-5.2478,-5.2412,-5.2429,-5.2439,-5.248,-5.2479,-5.2504,-5.252,-5.252,-5.2494,-5.2539,-5.2551,-5.2641,-5.2698,-5.2588,-5.2594,-5.2876,-5.2883,-5.2888,-5.2969,0,0,0,0,0,0,-5.2318,-5.2339,-5.2382,-5.2414,-5.2433,-5.2557,-5.2484,-5.2484,-5.2515,-5.2508,-5.2542,-5.2544,-5.2537,-5.2631,-5.2647,-5.2705,-5.2599,-5.2871,-5.2879,-5.2887,-5.2961,-5.2977,-5.2991,0,0,0,0,0,-5.2311,-5.2401,-5.2385,-5.2402,-5.2487,-5.2561,-5.2571,-5.2562,-5.252,-5.2563,-5.2574,-5.2543,-5.269,-5.2641,-5.2658,-5.2719,-5.2867,-5.2877,-5.2886,-5.2954,-5.2974,-5.2991,0,0,0,0,0,0,-5.2374,-5.2405,-5.2387,-5.249,-5.2524,-5.2551,-5.2605,-5.2583,-5.2628,-5.262,-5.2606,-5.2615,-5.2708,-5.2723,-5.2667,-5.2832,-5.2772,-5.2785,-5.2818,-5.2837,-5.2852,-5.2845,-5.2604,0,0,0,0,0,-5.2401,-5.2459,-5.2482,-5.2571,-5.2589,-5.2595,-5.2626,-5.2617,-5.2651,-5.2664,-5.2681,-5.2715,-5.2769,-5.2804,-5.2855,-5.2965,-5.2971,-5.3015,-5.303,-5.3042,-5.3053,-5.3112,-5.3132,-5.2921,-5.2921,-5.2921,0,0,-5.2455,-5.2479,-5.2516,-5.2584,-5.2609,-5.2669,-5.2606,-5.2672,-5.2716,-5.2674,-5.2758,-5.2773,-5.281,-5.291,-5.2955,-5.2925,-5.3113,-5.3054,-5.3064,-5.3067,-5.3124,-5.3144,-5.3161,-5.2927,-5.2926,-5.2925,0,0,-5.2584,-5.2608,-5.2685,-5.2712,-5.2751,-5.2755,-5.2774,-5.2806,-5.2814,-5.29,-5.2869,-5.2922,-5.3015,-5.3043,-5.3069,-5.3213,-5.3185,-5.323,-5.3306,-5.3365,-5.3381,-5.3396,-5.3446,-5.3464,-5.3241,-5.3242,-5.3242,0,-5.2645,-5.2735,-5.2727,-5.2796,-5.2826,-5.2794,-5.2871,-5.2897,-5.2951,-5.2973,-5.294,-5.3057,-5.308,-5.3186,-5.3221,-5.3244,-5.3265,-5.3224,-5.338,-5.3394,-5.3408,-5.3455,-5.3474,-5.3247,-5.3246,-5.3246,-5.3245,0,-5.2808,-5.2871,-5.2929,-5.2983,-5.3021,-5.3093,-5.3097,-5.3136,-5.3125,-5.3133,-5.3221,-5.3248,-5.3304,-5.3329,-5.3318,-5.3435,-5.3415,-5.3381,-5.332,-5.3433,-5.3477,-5.3496,-5.3254,-5.3252,-5.3251,-5.3249,0,0,-5.2974,-5.3026,-5.3047,-5.3071,-5.3114,-5.3162,-5.3235,-5.3291,-5.3325,-5.3364,-5.3424,-5.3506,-5.3475,-5.3505,-5.3498,-5.355,-5.3661,-5.351,-5.351,-5.3535,-5.3791,-5.3814,-5.3835,-5.3645,-5.3649,-5.3652,-5.3787,0,-5.3103,-5.3229,-5.3226,-5.3343,-5.3401,-5.3373,-5.3436,-5.3469,-5.348,-5.3531,-5.3542,-5.3599,-5.3556,-5.3574,-5.3624,-5.3637,-5.3712,-5.3628,-5.3699,-5.3702,-5.3688,-5.3858,-5.3882,-5.4008,-5.3804,-5.3807,-5.381,0,-5.327,-5.3316,-5.3439,-5.3476,-5.35,-5.3556,-5.3608,-5.3658,-5.3696,-5.37,-5.3736,-5.3721,-5.3795,-5.3735,-5.3836,-5.3779,-5.3809,-5.382,-5.3825,-5.3828,-5.376,-5.3864,-5.4048,-5.4066,-5.3837,-5.3835,-5.3833,0,-5.3376,-5.347,-5.3556,-5.3578,-5.3623,-5.3664,-5.3684,-5.3719,-5.3753,-5.3799,-5.3821,-5.3875,-5.3904,-5.3946,-5.3947,-5.3903,-5.4049,-5.3989,-5.4053,-5.4054,-5.4082,-5.4079,-5.4271,-5.4107,-5.4106,-5.4106,-5.4106,0,-5.3519,-5.3595,-5.3604,-5.3657,-5.3742,-5.3739,-5.3823,-5.3839,-5.3871,-5.3926,-5.3907,-5.3959,-5.3958,-5.4011,-5.4013,-5.4096,-5.411,-5.4115,-5.4113,-5.4115,-5.4114,-5.4131,-5.4121,-5.4111,-5.411,-5.4109,-5.4108,0,-5.365,-5.366,-5.3751,-5.3788,-5.3799,-5.386,-5.389,-5.3941,-5.3951,-5.4022,-5.4038,-5.4054,-5.4116,-5.4122,-5.4194,-5.4195,-5.4296,-5.4287,-5.4283,-5.428,-5.4343,-5.4336,-5.455,-5.4578,-5.4398,-5.44,-5.4401,0,-5.3738,-5.3796,-5.384,-5.3876,-5.39,-5.3958,-5.3994,-5.3995,-5.4033,-5.4083,-5.4127,-5.4188,-5.4236,-5.4337,-5.4355,-5.441,-5.44,-5.4472,-5.4408,-5.4408,-5.4399,-5.4394,-5.44,-5.4483,-5.4485,-5.4486,-5.4488,0,-5.3894,-5.3897,-5.3949,-5.4005,-5.4049,-5.4093,-5.4133,-5.4164,-5.417,-5.4214,-5.4279,-5.4316,-5.4392,-5.4452,-5.4507,-5.4528,-5.4509,-5.4509,-5.4526,-5.4526,-5.452,-5.4522,-5.4313,-5.4502,-5.4501,-5.45,-5.4499,-5.4498,-5.4005,-5.4055,-5.4095,-5.4155,-5.4186,-5.4226,-5.4275,-5.4293,-5.4347,-5.4408,-5.4406,-5.4477,-5.4516,-5.4588,-5.4614,-5.4669,-5.4645,-5.4671,-5.4677,-5.4682,-5.4688,-5.4515,-5.468,-5.4679,-5.4679,-5.4679,-5.4679,0,-5.4157,-5.4182,-5.4238,-5.4297,-5.4344,-5.4326,-5.4371,-5.4411,-5.4474,-5.4513,-5.4562,-5.4636,-5.4696,-5.472,-5.4779,-5.4818,-5.4811,-5.4833,-5.4828,-5.4834,-5.4707,-5.4685,-5.4838,-5.4838,-5.4838,-5.4838,-5.4838,-5.4838,-5.4242,-5.4326,-5.4335,-5.4436,-5.446,-5.453,-5.4557,-5.4594,-5.4625,-5.4709,-5.4759,-5.4776,-5.4809,-5.487,-5.4924,-5.493,-5.4951,-5.4977,-5.4979,-5.4859,-5.4842,-5.4827,-5.4806,-5.4982,-5.4982,-5.51,-5.5101,-5.5102]},{"header":{"parameterUnit":"m.s-1","parameterCategory":1,"la1":30.2991,"la2":30.254,"lo1":-89.0895,"lo2":-89.0444,"dy":0.0017,"dx":0.0017,"nx":28,"ny":28,"refTime":"2026-03-04T09:00:00:Z","depth":0,"parameterNumber":3,"parameterNumberName":"V-component_of_WINDS"},"data":[0,0,0,0,0,0,0,0,0,0,0,0,0,0,0,0,0,0,0,0,0,0,0,0,0,0,0,0,0,0,0,0,0,0,0,0,0,0,0,0,0,0,0,0,0,0,0,0,0,0,0,0,0,0,0,0,0,0,1.8509,1.851,0,1.8566,1.8567,1.8567,1.8587,1.8587,1.8587,1.8586,1.8641,1.8643,1.8644,0,0,0,0,0,0,0,0,0,0,0,0,0,1.8417,1.8418,1.8509,1.851,1.8511,1.8566,1.8567,1.8568,1.8587,1.8587,1.8587,1.8586,1.8641,1.8642,1.8644,0,0,0,0,0,0,0,0,0,0,0,0,0,1.8463,1.8419,1.8509,1.8527,1.8529,1.8566,1.8567,1.8568,1.8587,1.8587,1.8587,1.8586,1.864,1.8642,1.8645,1.8666,0,0,1.8652,1.8653,0,0,0,0,0,0,0,0,1.8461,1.8467,1.8524,1.8526,1.8529,1.8569,1.8554,1.8601,1.8587,1.8565,1.8586,1.8586,1.8617,1.8622,1.8633,1.8669,1.8671,1.8652,1.8654,1.8655,1.8656,0,0,0,0,0,0,0,1.8457,1.8464,1.8532,1.8525,1.8528,1.8532,1.8538,1.8563,1.8592,1.8567,1.8569,1.8575,1.8618,1.863,1.8634,1.8672,1.8652,1.8655,1.8656,1.8657,1.8732,1.8732,0,0,0,0,0,0,1.8451,1.8462,1.853,1.8533,1.8493,1.8534,1.8541,1.8556,1.8592,1.8597,1.8575,1.8576,1.8626,1.8631,1.8636,1.8666,1.8655,1.8657,1.8659,1.8731,1.8732,1.8733,0,0,0,0,0,0,1.8449,1.8457,1.8528,1.8498,1.8507,1.8536,1.8553,1.8558,1.857,1.8598,1.8603,1.8582,1.8626,1.8633,1.866,1.8668,1.8658,1.8661,1.8731,1.8732,1.8732,1.8724,0,0,0,0,0,0,1.8447,1.8457,1.8465,1.8498,1.8509,1.855,1.8554,1.8559,1.8574,1.8576,1.8606,1.8611,1.8626,1.8656,1.8662,1.8671,1.8663,1.873,1.8731,1.8732,1.8723,1.8724,1.8725,0,0,0,0,0,1.8443,1.8459,1.8465,1.8473,1.852,1.8551,1.8557,1.8575,1.8575,1.8584,1.8603,1.861,1.8666,1.8658,1.8666,1.8675,1.873,1.8731,1.8732,1.8723,1.8724,1.8725,0,0,0,0,0,0,1.8423,1.8463,1.8471,1.8498,1.8521,1.8554,1.8565,1.8575,1.8598,1.8598,1.8619,1.8626,1.8652,1.8666,1.8657,1.87,1.8698,1.8701,1.8689,1.869,1.8691,1.8687,1.8665,0,0,0,0,0,1.8423,1.8445,1.8478,1.8498,1.851,1.8536,1.855,1.8563,1.8587,1.8596,1.8617,1.864,1.8663,1.8677,1.87,1.8726,1.8734,1.8737,1.8737,1.8738,1.8739,1.8757,1.8759,1.8736,1.8736,1.8736,0,0,1.842,1.8445,1.8457,1.8495,1.8515,1.8537,1.8544,1.8566,1.8584,1.8599,1.8627,1.8643,1.867,1.8698,1.8711,1.871,1.8748,1.8739,1.8739,1.8741,1.8758,1.876,1.8762,1.8737,1.8737,1.8737,0,0,1.8427,1.8448,1.8469,1.8489,1.852,1.8537,1.8542,1.8575,1.8587,1.8616,1.8629,1.8649,1.8688,1.8707,1.8722,1.8741,1.8749,1.8748,1.8751,1.8768,1.877,1.8771,1.8779,1.8782,1.875,1.875,1.875,0,1.842,1.8455,1.8477,1.8501,1.8518,1.8536,1.8558,1.8576,1.8611,1.8623,1.8623,1.8674,1.8693,1.8727,1.8732,1.8743,1.875,1.8744,1.8768,1.877,1.8772,1.878,1.8782,1.875,1.875,1.875,1.875,0,1.8446,1.847,1.8483,1.852,1.8539,1.8561,1.8586,1.8603,1.8615,1.8633,1.8663,1.8687,1.8716,1.8725,1.8736,1.8761,1.876,1.8764,1.8763,1.8773,1.8781,1.8784,1.8749,1.8749,1.8749,1.8749,0,0,1.8439,1.8491,1.8496,1.8514,1.8551,1.857,1.8594,1.8624,1.8638,1.8663,1.8684,1.8719,1.8723,1.874,1.8754,1.8768,1.8784,1.8771,1.8772,1.8773,1.8815,1.8813,1.8816,1.8791,1.8791,1.8792,1.8814,0,1.8452,1.8497,1.8519,1.8554,1.8578,1.8597,1.8618,1.8643,1.8661,1.8684,1.8704,1.8729,1.8732,1.8743,1.8758,1.8779,1.8793,1.8778,1.881,1.8811,1.8803,1.882,1.8816,1.8836,1.8817,1.8817,1.8818,0,1.8472,1.85,1.8538,1.8575,1.8586,1.8604,1.8636,1.8657,1.8687,1.8699,1.8721,1.8735,1.8761,1.8759,1.8796,1.8786,1.8801,1.8813,1.8814,1.8818,1.8815,1.8824,1.8842,1.8845,1.8822,1.8822,1.8822,0,1.8465,1.8512,1.8541,1.8556,1.86,1.8613,1.8632,1.8661,1.8679,1.8706,1.8719,1.8748,1.8764,1.8786,1.8808,1.8805,1.8844,1.8843,1.8856,1.8855,1.8862,1.8861,1.8883,1.8871,1.8871,1.8871,1.8871,0,1.8477,1.85,1.8539,1.8557,1.8584,1.861,1.8636,1.8656,1.8682,1.8705,1.8723,1.8744,1.8772,1.8796,1.8813,1.8843,1.8849,1.886,1.8865,1.8859,1.8858,1.8868,1.8868,1.8872,1.8872,1.8872,1.8872,0,1.8473,1.85,1.8534,1.8575,1.8585,1.8603,1.8638,1.8656,1.8677,1.8705,1.8713,1.8745,1.8775,1.88,1.8838,1.885,1.8881,1.8886,1.8872,1.8874,1.8885,1.8884,1.8915,1.8921,1.8904,1.8904,1.8904,0,1.8479,1.8497,1.8541,1.8558,1.8577,1.8605,1.8624,1.8651,1.8671,1.8708,1.8722,1.8754,1.8781,1.8828,1.8854,1.8885,1.8891,1.89,1.8895,1.889,1.8892,1.8891,1.8893,1.8899,1.89,1.89,1.89,0,1.8486,1.85,1.8528,1.8562,1.8586,1.8613,1.8641,1.8654,1.8686,1.8708,1.874,1.8761,1.8802,1.8834,1.8868,1.8887,1.8899,1.8901,1.8906,1.89,1.8891,1.8897,1.8873,1.89,1.89,1.89,1.89,1.89,1.8488,1.8507,1.8541,1.8573,1.8597,1.8624,1.8644,1.8669,1.8697,1.8734,1.8748,1.8782,1.8813,1.886,1.888,1.8906,1.8908,1.8914,1.8915,1.8917,1.8917,1.8888,1.8912,1.8912,1.8912,1.8912,1.8913,0,1.8497,1.8522,1.8551,1.8591,1.8616,1.8628,1.8661,1.8681,1.871,1.874,1.8767,1.8805,1.8837,1.8867,1.8901,1.8916,1.8923,1.8924,1.8923,1.8928,1.8913,1.8906,1.8919,1.8919,1.8919,1.8918,1.8918,1.8918,1.8505,1.8538,1.8557,1.8602,1.8626,1.8661,1.8679,1.8704,1.8728,1.877,1.8798,1.8818,1.8848,1.8885,1.8915,1.8923,1.8935,1.8935,1.8944,1.8929,1.8928,1.8928,1.8921,1.8937,1.8937,1.8957,1.8957,1.8957]}]]